Taos, NM

2:52 AM MDT on October 24, 2017 (GMT -0600)
Taos Municipal

Weather History for KSKX - October, 2010

Change the Weather History Date:

Tuesday, October 26, 2010

  Actual Average Record
Temperature  
Mean Temperature 34 °F -  
Max Temperature 48 °F 55 °F 71 °F (2007)
Min Temperature 19 °F 26 °F 10 °F (2003)
Degree Days  
Heating Degree Days 32    
Moisture  
Dew Point 16 °F    
Average Humidity 51    
Maximum Humidity 80    
Minimum Humidity 24    
Precipitation  
Precipitation 0.00 in - - ()
Sea Level Pressure  
Sea Level Pressure 29.85 in    
Wind  
Wind Speed 10 mph (WSW)    
Max Wind Speed 26 mph    
Max Gust Speed 34 mph    
Visibility 10 miles    
Events      
Averages and records for this station are not official NWS values.
T = Trace of Precipitation, MM = Missing Value Source: NWS Daily Summary

Daily Weather History Graph

Daily Weather History Graph

Search for Another Location

Airport or City:

Trip Planner

Search our weather history database for the weather conditions in past years. The results will help you decide how hot, cold, wet, or windy it might be!

Date:

Astronomy

Oct. 26, 2010 Rise Set
Actual Time 7:20 AM MDT 6:12 PM MDT
Civil Twilight 6:53 AM MDT 6:39 PM MDT
Nautical Twilight 6:23 AM MDT 7:09 PM MDT
Astronomical Twilight 5:53 AM MDT 7:39 PM MDT
Moon 8:43 PM MDT (10/26) 10:56 AM MDT (10/26)
Length of Visible Light 11h 45m
Length of Day
10h 52m
Waning Gibbous, 87% of the Moon is Illuminated
Oct 26
Waning Gibbous
Oct 30
Last Quarter
Nov 5
New
Nov 13
First Quarter
Nov 21
Full

Hourly Weather History & Observations

Time (MDT) Temp. Windchill Dew Point Humidity Pressure Visibility Wind Dir Wind Speed Gust Speed Precip Events Conditions
12:15 AM 26.6 °F 20.0 °F 17.6 °F 69% 29.85 in 10.0 mi SSE 5.8 mph - N/A   Clear
12:35 AM 26.6 °F 19.1 °F 15.8 °F 64% 29.86 in 10.0 mi SE 6.9 mph - N/A   Clear
12:55 AM 26.6 °F 21.2 °F 17.6 °F 69% 29.86 in 10.0 mi ESE 4.6 mph - N/A   Clear
1:15 AM 26.6 °F 20.0 °F 17.6 °F 69% 29.85 in 10.0 mi SSW 5.8 mph - N/A   Clear
1:55 AM 28.4 °F 18.5 °F 17.6 °F 64% 29.86 in 10.0 mi SW 11.5 mph - N/A   Clear
2:15 AM 26.6 °F 16.8 °F 17.6 °F 69% 29.86 in 10.0 mi SW 10.4 mph - N/A   Clear
2:35 AM 26.6 °F 17.5 °F 17.6 °F 69% 29.85 in 10.0 mi SW 9.2 mph - N/A   Clear
2:55 AM 24.8 °F 16.1 °F 15.8 °F 69% 29.86 in 10.0 mi SW 8.1 mph - N/A   Clear
3:15 AM 26.6 °F 16.8 °F 15.8 °F 64% 29.85 in 10.0 mi SW 10.4 mph - N/A   Clear
3:35 AM 26.6 °F 17.5 °F 15.8 °F 64% 29.85 in 10.0 mi SW 9.2 mph - N/A   Clear
3:55 AM 24.8 °F 16.1 °F 15.8 °F 69% 29.85 in 10.0 mi SW 8.1 mph - N/A   Clear
4:15 AM 24.8 °F 16.9 °F 15.8 °F 69% 29.84 in 10.0 mi WSW 6.9 mph - N/A   Clear
4:55 AM 24.8 °F 16.9 °F 15.8 °F 69% 29.84 in 10.0 mi SW 6.9 mph - N/A   Clear
5:15 AM 24.8 °F 14.0 °F 17.6 °F 74% 29.85 in 10.0 mi SW 11.5 mph - N/A   Clear
5:35 AM 23.0 °F - 15.8 °F 74% 29.86 in 10.0 mi Calm Calm - N/A   Clear
5:55 AM 21.2 °F - 12.2 °F 68% 29.87 in 10.0 mi Calm Calm - N/A   Clear
6:15 AM 21.2 °F - 12.2 °F 68% 29.87 in 10.0 mi Calm Calm - N/A   Clear
6:35 AM 19.4 °F - 14.0 °F 80% 29.87 in 10.0 mi Calm Calm - N/A   Clear
6:55 AM 21.2 °F - 12.2 °F 68% 29.87 in 10.0 mi Calm Calm - N/A   Clear
7:15 AM 19.4 °F - 12.2 °F 74% 29.87 in 10.0 mi Calm Calm - N/A   Clear
7:35 AM 19.4 °F - 14.0 °F 80% 29.87 in 10.0 mi Calm Calm - N/A   Clear
7:55 AM 21.2 °F - 15.8 °F 80% 29.87 in 10.0 mi Calm Calm - N/A   Clear
8:15 AM 26.6 °F - 19.4 °F 74% 29.88 in 10.0 mi Calm Calm - N/A   Clear
8:35 AM 28.4 °F 24.6 °F 19.4 °F 69% 29.88 in 10.0 mi WNW 3.5 mph - N/A   Clear
8:55 AM 32.0 °F 22.5 °F 19.4 °F 60% 29.88 in 10.0 mi WSW 12.7 mph - N/A   Clear
9:15 AM 33.8 °F 23.9 °F 19.4 °F 56% 29.88 in 10.0 mi WSW 15.0 mph 18.4 mph N/A   Clear
9:35 AM 35.6 °F 25.5 °F 17.6 °F 48% 29.88 in 10.0 mi WSW 17.3 mph - N/A   Clear
9:55 AM 35.6 °F 25.5 °F 17.6 °F 48% 29.88 in 10.0 mi WSW 17.3 mph 20.7 mph N/A   Clear
10:15 AM 37.4 °F 27.8 °F 17.6 °F 45% 29.88 in 10.0 mi West 17.3 mph 20.7 mph N/A   Clear
10:35 AM 37.4 °F 30.3 °F 17.6 °F 45% 29.88 in 10.0 mi WSW 10.4 mph 19.6 mph N/A   Clear
10:55 AM 39.2 °F 30.8 °F 17.6 °F 42% 29.87 in 10.0 mi WSW 15.0 mph 18.4 mph N/A   Clear
11:15 AM 39.2 °F 30.5 °F 19.4 °F 45% 29.87 in 10.0 mi WSW 16.1 mph 23.0 mph N/A   Clear
11:35 AM 41.0 °F 32.2 °F 19.4 °F 42% 29.85 in 10.0 mi West 18.4 mph 25.3 mph N/A   Clear
11:55 AM 42.8 °F 34.0 °F 17.6 °F 36% 29.85 in 10.0 mi West 20.7 mph 27.6 mph N/A   Clear
12:15 PM 42.8 °F 34.0 °F 17.6 °F 36% 29.84 in 10.0 mi West 20.7 mph 25.3 mph N/A   Clear
12:35 PM 44.6 °F 36.4 °F 17.6 °F 34% 29.84 in 10.0 mi West 20.7 mph 31.1 mph N/A   Clear
12:55 PM 44.6 °F 36.4 °F 17.6 °F 34% 29.83 in 10.0 mi West 20.7 mph 28.8 mph N/A   Clear
1:15 PM 46.4 °F 39.0 °F 15.8 °F 29% 29.83 in 10.0 mi West 19.6 mph 26.5 mph N/A   Clear
1:35 PM 46.4 °F 38.3 °F 15.8 °F 29% 29.81 in 10.0 mi West 23.0 mph 29.9 mph N/A   Clear
2:15 PM 48.2 °F - 15.8 °F 27% 29.81 in 10.0 mi West 19.6 mph 25.3 mph N/A   Clear
2:35 PM 48.2 °F - 14.0 °F 25% 29.81 in 10.0 mi WNW 17.3 mph 28.8 mph N/A   Clear
2:55 PM 48.2 °F - 15.8 °F 27% 29.80 in 10.0 mi West 21.9 mph 31.1 mph N/A   Clear
3:15 PM 48.2 °F - 15.8 °F 27% 29.80 in 10.0 mi West 19.6 mph 29.9 mph N/A   Clear
3:35 PM 48.2 °F - 14.0 °F 25% 29.81 in 10.0 mi WNW 19.6 mph 27.6 mph N/A   Clear
3:55 PM 48.2 °F - 15.8 °F 27% 29.80 in 10.0 mi West 21.9 mph 31.1 mph N/A   Partly Cloudy
4:15 PM 48.2 °F - 12.2 °F 24% 29.81 in 10.0 mi West 20.7 mph 32.2 mph N/A   Clear
4:35 PM 48.2 °F - 12.2 °F 24% 29.81 in 10.0 mi WNW 21.9 mph 29.9 mph N/A   Clear
4:55 PM 46.4 °F 37.7 °F 12.2 °F 25% 29.82 in 10.0 mi WNW 26.5 mph 34.5 mph N/A   Clear
5:15 PM 44.6 °F 35.3 °F 10.4 °F 25% 29.83 in 10.0 mi WNW 26.5 mph 33.4 mph N/A   Clear
5:35 PM 44.6 °F 35.9 °F 10.4 °F 25% 29.83 in 10.0 mi West 23.0 mph 32.2 mph N/A   Clear
5:55 PM 42.8 °F 35.1 °F 8.6 °F 25% 29.84 in 10.0 mi West 16.1 mph 24.2 mph N/A   Clear
6:15 PM 39.2 °F 30.5 °F 8.6 °F 28% 29.85 in 10.0 mi West 16.1 mph 20.7 mph N/A   Clear
6:35 PM 37.4 °F 29.3 °F 8.6 °F 30% 29.86 in 10.0 mi West 12.7 mph - N/A   Clear
6:55 PM 37.4 °F 30.3 °F 8.6 °F 30% 29.86 in 10.0 mi West 10.4 mph 17.3 mph N/A   Clear
7:15 PM 37.4 °F 29.8 °F 10.4 °F 33% 29.87 in 10.0 mi West 11.5 mph - N/A   Clear
7:55 PM 35.6 °F 27.5 °F 10.4 °F 35% 29.89 in 10.0 mi West 11.5 mph - N/A   Clear
8:15 PM 35.6 °F 28.0 °F 10.4 °F 35% 29.90 in 10.0 mi West 10.4 mph - N/A   Clear
8:35 PM 33.8 °F 27.7 °F 10.4 °F 38% 29.91 in 10.0 mi West 6.9 mph - N/A   Clear
8:55 PM 32.0 °F 26.4 °F 10.4 °F 41% 29.91 in 10.0 mi West 5.8 mph - N/A   Clear
9:15 PM 32.0 °F 25.6 °F 10.4 °F 41% 29.91 in 10.0 mi West 6.9 mph - N/A   Clear
9:35 PM 33.8 °F 29.6 °F 12.2 °F 41% 29.92 in 10.0 mi West 4.6 mph - N/A   Scattered Clouds
9:55 PM 33.8 °F 29.6 °F 12.2 °F 41% 29.93 in 10.0 mi West 4.6 mph - N/A   Overcast
10:15 PM 33.8 °F - 12.2 °F 41% 29.94 in 10.0 mi Calm Calm - N/A   Overcast
10:35 PM 35.6 °F - 12.2 °F 38% 29.94 in 10.0 mi Calm Calm - N/A   Overcast
10:55 PM 35.6 °F 32.8 °F 14.0 °F 41% 29.94 in 10.0 mi NNW 3.5 mph - N/A   Overcast
11:15 PM 33.8 °F 29.6 °F 14.0 °F 44% 29.95 in 10.0 mi NNW 4.6 mph - N/A   Overcast
11:35 PM 32.0 °F 26.4 °F 15.8 °F 51% 29.95 in 10.0 mi NW 5.8 mph - N/A   Overcast
11:55 PM 32.0 °F 27.5 °F 15.8 °F 51% 29.96 in 10.0 mi NNW 4.6 mph - N/A   Overcast